Regional Weather Roundup
Issued by NWS Goodland, KS

Home | Current Version | Previous Version | Text Only | Print | Product List | Glossary On
Versions: 1 2 3 4 5 6 7 8 9 10 11 12 13 14 15 16 17 18 19 20 21 22 23 24 25 26 27 28 29 30 31 32 33 34 35 36 37 38 39 40 41 42 43 44 45 46 47 48 49 50
000
ASUS43 KGLD 061108
RWRGLD

GOODLAND FORECAST AREA HOURLY WEATHER ROUNDUP
NATIONAL WEATHER SERVICE GOODLAND KS
500 AM MDT MON JUL 06 2015

...OFFICIAL OBSERVATIONS...

CITY           SKY/WX    TMP DP  RH WIND       PRES   REMARKS
GOODLAND KS    LGT RAIN  65  64  97 N21G26    29.97R
HILL CITY KS   MOCLDY    77  65  66 S3        29.83F
IMPERIAL NEB   CLOUDY    65  61  87 N16G23    29.99R
MCCOOK NEB     CLOUDY    68  65  90 N12       29.91R
AKRON CO       CLOUDY    62  59  90 N12       30.11R
BURLINGTON CO  LGT RAIN  64  61  90 N18G28    30.01R
LIMON CO       CLOUDY    61  59  93 N18G25    30.12F
$$

...UNOFFICIAL OBSERVATIONS...

CITY           SKY/WX    TMP DP  RH WIND       PRES   REMARKS
COLBY KS       MOCLDY    70  70 100 NW16      29.93R
GOVE KS          N/A     73  32  22 MISG        N/A
NORTON KS      PTCLDY    70  63  78 NE16      29.86R
SHARON SPRINGS   N/A     69  65  87 NW15G22     N/A
KIT CARSON CO    N/A     65  61  87 MISG        N/A
YUMA CO          N/A     63  61  92 N10         N/A
$$



USA.gov is the U.S. government's official web portal to all federal, state and local government web resources and services.